Gainesville, GA

12:37 AM EDT on October 18, 2017 (GMT -0400)
Gilmer Memorial

Weather History for KGVL - February, 2013

Change the Weather History Date:

Thursday, February 28, 2013

  Actual Average Record
Temperature  
Mean Temperature 40 °F 49 °F  
Max Temperature 44 °F 58 °F 75 °F (2011)
Min Temperature 34 °F 39 °F 11 °F (1935)
Degree Days  
Heating Degree Days 26 17  
Month to date heating degree days 547  
Since 1 July heating degree days 2464  
Moisture  
Dew Point 25 °F    
Average Humidity 57    
Maximum Humidity 64    
Minimum Humidity 49    
Precipitation  
Precipitation 0.00 in 0.21 in 1.85 in (1987)
Month to date precipitation 4.87  
Year to date precipitation 9.90  
Snow  
Snow 0.00 in - - ()
Month to date snowfall  
Since 1 July snowfall  
Snow Depth -    
Sea Level Pressure  
Sea Level Pressure 29.90 in    
Wind  
Wind Speed 13 mph (WNW)    
Max Wind Speed 15 mph    
Max Gust Speed 26 mph    
Visibility 10 miles    
Events      
T = Trace of Precipitation, MM = Missing Value Source: NWS Daily Summary

Daily Weather History Graph

Daily Weather History Graph

Search for Another Location

Airport or City:

Trip Planner

Search our weather history database for the weather conditions in past years. The results will help you decide how hot, cold, wet, or windy it might be!

Date:

Astronomy

Feb. 28, 2013 Rise Set
Actual Time 7:05 AM EST 6:30 PM EST
Civil Twilight 6:39 AM EST 6:56 PM EST
Nautical Twilight 6:10 AM EST 7:25 PM EST
Astronomical Twilight 5:41 AM EST 7:54 PM EST
Moon 9:45 PM EST (2/28) 8:24 AM EST (2/28)
Length of Visible Light 12h 16m
Length of Day
11h 25m
Waning Gibbous, 91% of the Moon is Illuminated
Feb 28
Waning Gibbous
Mar 4
Last Quarter
Mar 11
New
Mar 19
First Quarter
Mar 27
Full

Hourly Weather History & Observations

Time (EST) Temp. Windchill Dew Point Humidity Pressure Visibility Wind Dir Wind Speed Gust Speed Precip Events Conditions
1:53 AM 42.1 °F 34.5 °F 28.0 °F 58% 29.84 in 10.0 mi WNW 15.0 mph 26.5 mph N/A   Mostly Cloudy
2:53 AM 41.0 °F 34.3 °F 28.0 °F 60% 29.83 in 10.0 mi West 11.5 mph 19.6 mph N/A   Mostly Cloudy
3:53 AM 39.9 °F 32.5 °F 28.0 °F 63% 29.82 in 10.0 mi West 12.7 mph 18.4 mph N/A   Mostly Cloudy
4:53 AM 37.9 °F 30.9 °F 24.1 °F 57% 29.83 in 10.0 mi West 10.4 mph 19.6 mph N/A   Clear
5:53 AM 37.0 °F 29.8 °F 24.1 °F 59% 29.83 in 10.0 mi West 10.4 mph - N/A   Clear
7:53 AM 37.0 °F 30.4 °F 25.0 °F 62% 29.85 in 10.0 mi West 9.2 mph - N/A   Scattered Clouds
8:53 AM 39.0 °F 31.8 °F 26.1 °F 60% 29.86 in 10.0 mi West 11.5 mph - N/A   Overcast
9:53 AM 39.9 °F 32.1 °F 27.0 °F 60% 29.87 in 10.0 mi West 13.8 mph 21.9 mph N/A   Overcast
10:53 AM 41.0 °F 33.1 °F 27.0 °F 57% 29.88 in 10.0 mi WNW 15.0 mph 20.7 mph N/A   Overcast
11:53 AM 42.1 °F 34.5 °F 25.0 °F 51% 29.89 in 10.0 mi WNW 15.0 mph 25.3 mph N/A   Mostly Cloudy
12:53 PM 44.1 °F 37.7 °F 28.0 °F 53% 29.89 in 10.0 mi WNW 12.7 mph 20.7 mph N/A   Overcast
1:53 PM 43.0 °F 36.0 °F 25.0 °F 49% 29.88 in 10.0 mi West 13.8 mph 24.2 mph N/A   Overcast
2:53 PM 43.0 °F 35.7 °F 25.0 °F 49% 29.90 in 10.0 mi West 15.0 mph 25.3 mph N/A   Overcast
4:53 PM 39.9 °F 31.8 °F 25.0 °F 55% 29.94 in 10.0 mi WNW 15.0 mph - N/A   Overcast
5:53 PM 39.0 °F 32.3 °F 23.0 °F 53% 29.96 in 10.0 mi WNW 10.4 mph - N/A   Overcast
6:53 PM 37.0 °F 29.3 °F 23.0 °F 57% 29.96 in 10.0 mi NW 11.5 mph 19.6 mph N/A   Overcast
7:53 PM 37.0 °F 28.9 °F 23.0 °F 57% 29.97 in 10.0 mi WNW 12.7 mph 20.7 mph N/A   Overcast
8:53 PM 37.0 °F 29.8 °F 24.1 °F 59% 29.97 in 10.0 mi WNW 10.4 mph - N/A   Overcast
9:53 PM 36.0 °F 29.6 °F 24.1 °F 62% 29.98 in 10.0 mi NW 8.1 mph 17.3 mph N/A   Overcast
10:53 PM 35.1 °F 26.9 °F 23.0 °F 61% 29.96 in 10.0 mi NW 11.5 mph 20.7 mph N/A   Partly Cloudy
11:53 PM 34.0 °F 26.0 °F 23.0 °F 64% 29.96 in 10.0 mi WNW 10.4 mph 17.3 mph N/A   Partly Cloudy